Back to catalog

GLOBAL-2

AliveCommunicationsSSO
NORAD 43812·PAYLOAD·🇺🇸 United States

Launched Dec 3, 2018 from Vandenberg Space Force Base

Loading…

Next Passes (next 24 hours)

TLE

FreshSource: Space-Track

Epoch: Sep 14, 2026, 12:49 UTC

1 43812U 18099BG  26257.53435471  .00001796  00000-0  11710-3 0  9995
2 43812  97.3496 290.3279 0005252 190.9722 169.1393 15.09097786425380

Track GLOBAL-2 in real time with AllMySat

Download on the App Store